Location: Camp Crooked Creek
(37.9149°N, 85.6607°W)
Time: 03:30:05
(UTC-04:00)

Daily predictions for brighter satellites

Satellite Brightness Start Highest point End
(mag) Time Altitude Azimuth Time Altitude Azimuth Time Altitude Azimuth
USA 267 4.4 04:30:52 10° E 04:36:10 37° NE 04:36:10 37° NE
Okean O Rocket 3.4 05:15:47 10° NNE 05:18:42 30° ENE 05:18:42 30° ENE
Meteor 2-5 Rocket 3.8 05:31:32 72° SE 05:31:59 76° E 05:37:47 10° NNE
Cosmos 1125 Rocket 4.1 05:39:16 49° N 05:39:16 49° N 05:43:07 10° NNE
CZ-4C R/B 4.5 05:46:34 19° SSW 05:46:34 19° SSW 05:48:55 10° S
USA 215 4.3 05:44:19 10° NNE 05:49:39 28° NNW 05:50:01 28° NNW
SL-8 Rocket 4.3 05:43:30 10° N 05:49:49 69° E 05:56:06 10° SSE
SJ 16-02 2.8 05:52:07 27° N 05:52:07 27° N 05:54:14 10° NNE
Cosmos 158 Rocket 3.9 05:53:33 73° SW 05:53:33 73° SW 05:58:38 10° S
Cosmos 2227 Rocket 3.2 05:53:28 10° N 05:58:56 47° ENE 06:04:21 10° SE
ADEOS II 3.4 05:57:23 10° N 05:59:48 25° NNW 05:59:48 25° NNW
Milstar 3 3.7 06:01:35 28° SSW 06:02:49 29° SSW 06:08:55 10° SE
ATLAS 2AS CENTAUR R/B 4.3 05:58:11 10° S 06:05:03 39° ESE 06:12:22 10° NE
Cosmos 1809 Rocket 4.3 05:59:22 10° NNW 06:05:27 66° W 06:11:31 10° S
Cosmos 1048 Rocket 3.9 06:06:33 46° NW 06:07:58 66° WSW 06:13:10 10° S
NOSS 3-1 (C) 4.3 06:09:14 30° NW 06:09:14 30° NW 06:14:42 10° NNE
NOSS 2-3 (E) 4.1 06:09:13 24° SSW 06:11:55 65° ESE 06:17:05 10° NE
Intercosmos 24 3.6 06:10:46 10° N 06:14:56 83° W 06:18:28 10° S
Meteor 1-24 Rocket 3.7 06:10:13 10° SSW 06:16:13 72° W 06:22:06 10° N
NOSS 3-1 (A) 4.0 06:16:39 35° WNW 06:17:18 35° NW 06:23:12 10° NNE
Cosmos 1656 4.1 06:11:46 10° S 06:17:22 63° ESE 06:23:00 10° NNE
USA 267 3.2 06:12:59 10° SE 06:19:29 67° SW 06:23:31 25° NW
CZ-2C R/B 3.9 06:19:04 10° SSE 06:23:48 77° ENE 06:28:29 10° N
IRS-1C Rocket 4.0 06:19:13 10° N 06:24:28 70° WNW 06:29:41 10° SSW
Cosmos 2218 Rocket 3.9 06:18:27 10° N 06:24:43 77° W 06:31:02 10° S
Meteor 2-21 Rocket 4.4 06:22:03 10° NNW 06:27:57 56° W 06:33:55 10° S
SJ-6F 4.3 06:25:10 10° NNE 06:29:15 89° W 06:33:19 10° SSW
In-Cosmos 22 4.2 06:25:24 10° SSW 06:30:57 62° W 06:36:40 10° N
Cosmos 2219 3.8 06:31:24 31° W 06:31:50 32° WSW 06:36:43 10° SSW
OE (NEXTSAT) 4.4 06:31:18 45° NW 06:32:15 75° NNE 06:35:50 10° ESE
Meteor 1-31 Rocket 2.7 06:29:47 10° N 06:33:32 58° WNW 06:37:16 10° SSW
Cosmos 2297 Rocket 2.3 06:30:18 10° NNW 06:35:59 79° ENE 06:41:37 10° SSE
CZ-4B R/B 4.2 06:35:40 10° N 06:40:05 56° WNW 06:44:27 10° SSW
Cosmos 1697 Rocket 3.1 06:34:39 10° S 06:40:13 66° ESE 06:45:51 10° NNE
Nadezhda 3 Rocket 4.4 06:34:38 10° S 06:40:53 67° E 06:47:06 10° NNE
Cosmos 1908 3.1 06:40:23 10° N 06:44:14 86° E 06:48:02 10° S
MTI 3.7 06:41:07 10° SSE 06:44:21 86° E 06:47:36 10° N
NOSS 2-3 (C) 3.8 06:42:57 16° SW 06:46:40 62° NW 06:51:57 10° NNE
ATLAS CENTAUR R/B 3.9 06:45:12 10° NNE 06:47:25 15° NE 06:49:41 10° E
Cosmos 2082 3.6 06:42:14 10° NNW 06:47:55 85° WSW 06:53:32 10° SSE
Meteor PRIRODA 4.4 06:45:05 10° N 06:48:25 30° WNW 06:49:44 24° WSW
Landsat 4 3.9 06:47:49 10° S 06:51:27 46° W 06:55:05 10° NNW
Cosmos 2084 Rocket 4.2 06:50:12 25° W 06:51:39 31° NW 06:55:20 10° NNE
EO 1 Del DPAF 3.2 06:48:43 10° SSE 06:52:32 89° ENE 06:56:24 10° NNW
Cosmos 1980 Rocket 3.2 06:50:26 10° S 06:55:47 50° ESE 07:01:12 10° NNE
Okean O Rocket 2.9 06:52:48 10° NNW 06:55:57 19° WNW 06:56:09 19° WNW
Cosmos 2221 2.5 06:54:30 10° N 06:58:55 83° W 07:03:16 10° S
CZ-2C R/B 3.8 06:54:41 10° NNE 06:59:31 45° E 07:04:26 10° S
Meteor 1-28 Rocket 3.4 06:56:45 10° S 07:00:26 49° W 07:04:09 10° NNW
CZ-4B R/B 4.1 06:59:14 10° N 07:03:50 28° WNW 07:08:29 10° WSW
Cosmos 1300 4.1 07:00:35 10° N 07:04:14 41° E 07:07:50 10° SSE
Feng Yun 1-1 Rocket 4.3 06:59:07 10° N 07:04:45 70° WNW 07:10:32 10° SSW
COSMO-SKYMED 1 2.5 07:02:51 10° S 07:07:11 81° WSW 07:11:32 10° NNW
Lacrosse 5 4.3 07:07:42 10° N 07:09:37 12° NNE 07:11:32 10° NE
PAYLOAD A 4.0 07:05:03 10° NNE 07:09:50 82° ESE 07:14:45 10° S
Cosmos 2369 4.2 07:05:49 10° SW 07:11:02 38° WNW 07:16:16 10° N
DELTA 2 R/B(2) 4.2 07:12:14 18° W 07:13:38 47° SSW 07:16:53 10° ESE
Meteor 1-21 Rocket 4.3 07:09:28 10° SSW 07:15:11 63° W 07:20:49 10° N
Cosmos 494 Rocket 4.3 07:11:38 10° NNW 07:16:34 44° WSW 07:21:29 10° S
Okean-O 2.9 07:14:50 10° N 07:19:04 45° WNW 07:23:16 10° SW
Cosmos 1726 2.1 07:23:00 10° NNW 07:26:36 55° W 07:30:11 10° S
Cosmos 1674 3.9 07:24:06 10° SW 07:26:56 20° WNW 07:29:47 10° NNW
GRACE-2 4.3 07:24:33 10° N 07:27:03 59° E 07:29:32 10° S
Thor Agena Rocket 4.0 07:22:45 10° SSE 07:27:58 70° ENE 07:33:10 10° N
Cosmos 1328 3.9 07:28:05 10° S 07:32:06 88° ESE 07:36:09 10° N
GRACE-1 3.6 07:31:43 10° N 07:34:16 90° WNW 07:36:48 10° S
Cosmos 1076 Rocket 4.0 07:30:45 10° SSW 07:34:48 38° WNW 07:38:51 10° N
CZ-3 R/B 4.4 07:33:45 10° W 07:45:06 16° WSW 07:51:03 10° SSW
